owner,sensor,date,latitude,longitude,vertical_datum,direction_of_sea_water_velocity,sea_water_speed,upward_sea_water_velocity,qcFlag 
ADCP,ioos:station:wmo:42390:1,2017-08-01T00:39:00Z,26.1290,-94.8980,62.6,122.0,16.8,-3.0,'1111122,1111122,1111122' 
ADCP,ioos:station:wmo:42390:1,2017-08-01T01:39:00Z,26.1290,-94.8980,62.6,98.0,16.3,-7.6,'1111122,1111122,1111122' 
ADCP,ioos:station:wmo:42390:1,2017-08-01T01:59:00Z,26.1290,-94.8980,62.6,102.0,18.9,-4.3,'1111122,1111122,1111122' 
ADCP,ioos:station:wmo:42390:1,2017-08-01T03:29:00Z,26.1290,-94.8980,62.6,97.0,14.2,-4.9,'1111122,1111122,1111122' 
ADCP,ioos:station:wmo:42390:1,2017-08-01T03:49:00Z,26.1290,-94.8980,62.6,95.0,19.0,-3.8,'1111122,1111122,1111122' 
ADCP,ioos:station:wmo:42390:1,2017-08-01T06:29:00Z,26.1290,-94.8980,62.6,102.0,15.2,-1.2,'1111122,1111122,1111122' 
ADCP,ioos:station:wmo:42390:1,2017-08-01T07:39:00Z,26.1290,-94.8980,62.6,113.0,15.1,4.1,'1111122,1111122,1111122' 
ADCP,ioos:station:wmo:42390:1,2017-08-01T08:39:00Z,26.1290,-94.8980,62.6,138.0,10.4,3.0,'1111122,1111122,1111122' 
ADCP,ioos:station:wmo:42390:1,2017-08-01T10:29:00Z,26.1290,-94.8980,62.6,143.0,17.7,9.5,'1111122,1111122,1111122' 
ADCP,ioos:station:wmo:42390:1,2017-08-01T11:29:00Z,26.1290,-94.8980,62.6,141.0,20.7,7.8,'1111122,1111122,1111122' 
ADCP,ioos:station:wmo:42390:1,2017-08-01T12:39:00Z,26.1290,-94.8980,62.6,153.0,16.2,1.3,'1111122,1111122,1111122' 
ADCP,ioos:station:wmo:42390:1,2017-08-01T13:29:00Z,26.1290,-94.8980,62.6,136.0,22.7,5.6,'1111122,1111122,1111122' 
ADCP,ioos:station:wmo:42390:1,2017-08-01T14:39:00Z,26.1290,-94.8980,62.6,137.0,19.7,1.7,'1111122,1111122,1111122' 
ADCP,ioos:station:wmo:42390:1,2017-08-01T15:29:00Z,26.1290,-94.8980,62.6,144.0,23.7,8.9,'1111122,1111122,1111122' 
ADCP,ioos:station:wmo:42390:1,2017-08-01T15:49:00Z,26.1290,-94.8980,62.6,140.0,22.8,6.9,'1111122,1111122,1111122' 
ADCP,ioos:station:wmo:42390:1,2017-08-02T05:49:00Z,26.1290,-94.8980,62.6,187.0,9.6,-2.5,'1111122,1111122,1111122' 
ADCP,ioos:station:wmo:42390:1,2017-08-03T00:39:00Z,26.1290,-94.8980,62.6,176.0,15.4,2.3,'1111122,1111122,1111122' 
ADCP,ioos:station:wmo:42390:1,2017-08-03T02:29:00Z,26.1290,-94.8980,62.6,209.0,8.9,-1.0,'1111122,1111122,1111122' 
ADCP,ioos:station:wmo:42390:1,2017-08-03T04:49:00Z,26.1290,-94.8980,62.6,216.0,9.4,-0.9,'1111122,1111122,1111122' 
ADCP,ioos:station:wmo:42390:1,2017-08-03T06:49:00Z,26.1290,-94.8980,62.6,316.0,16.3,-15.9,'1111122,1111122,1111122' 
ADCP,ioos:station:wmo:42390:1,2017-08-03T08:29:00Z,26.1290,-94.8980,62.6,325.0,15.0,-15.0,'1111122,1111122,1111122' 
ADCP,ioos:station:wmo:42390:1,2017-08-03T09:29:00Z,26.1290,-94.8980,62.6,295.0,10.1,-7.9,'1111122,1111122,1111122' 
ADCP,ioos:station:wmo:42390:1,2017-08-03T11:29:00Z,26.1290,-94.8980,62.6,198.0,3.9,-8.8,'1111122,1111122,1111122' 
ADCP,ioos:station:wmo:42390:1,2017-08-03T13:29:00Z,26.1290,-94.8980,62.6,185.0,14.3,-1.7,'1111122,1111122,1111122' 
ADCP,ioos:station:wmo:42390:1,2017-08-03T14:29:00Z,26.1290,-94.8980,62.6,168.0,15.3,1.0,'1111122,1111122,1111122' 
ADCP,ioos:station:wmo:42390:1,2017-08-03T15:29:00Z,26.1290,-94.8980,62.6,165.0,27.0,12.3,'1111122,1111122,1111122' 
ADCP,ioos:station:wmo:42390:1,2017-08-03T16:29:00Z,26.1290,-94.8980,62.6,160.0,25.4,8.7,'1111122,1111122,1111122' 
ADCP,ioos:station:wmo:42390:1,2017-08-03T17:29:00Z,26.1290,-94.8980,62.6,174.0,30.0,14.4,'1111122,1111122,1111122' 
ADCP,ioos:station:wmo:42390:1,2017-08-03T22:49:00Z,26.1290,-94.8980,62.6,191.0,17.1,-0.5,'1111122,1111122,1111122' 
ADCP,ioos:station:wmo:42390:1,2017-08-04T01:29:00Z,26.1290,-94.8980,62.6,295.0,17.8,-18.4,'1111122,1111122,1111122' 
ADCP,ioos:station:wmo:42390:1,2017-08-04T04:49:00Z,26.1290,-94.8980,62.6,310.0,14.8,-10.2,'1111122,1111122,1111122' 
ADCP,ioos:station:wmo:42390:1,2017-08-04T10:39:00Z,26.1290,-94.8980,62.6,275.0,12.7,-8.8,'1111122,1111122,1111122' 
ADCP,ioos:station:wmo:42390:1,2017-08-04T12:39:00Z,26.1290,-94.8980,62.6,227.0,9.4,-5.5,'1111122,1111122,1111122' 
ADCP,ioos:station:wmo:42390:1,2017-08-04T17:39:00Z,26.1290,-94.8980,62.6,184.0,17.0,5.2,'1111122,1111122,1111122' 
ADCP,ioos:station:wmo:42390:1,2017-08-04T21:39:00Z,26.1290,-94.8980,62.6,177.0,25.6,7.0,'1111122,1111122,1111122' 
ADCP,ioos:station:wmo:42390:1,2017-08-04T22:39:00Z,26.1290,-94.8980,62.6,186.0,16.4,1.4,'1111122,1111122,1111122' 
ADCP,ioos:station:wmo:42390:1,2017-08-05T05:39:00Z,26.1290,-94.8980,62.6,336.0,19.0,-20.2,'1111122,1111122,1111122' 
ADCP,ioos:station:wmo:42390:1,2017-08-05T06:39:00Z,26.1290,-94.8980,62.6,333.0,17.4,-15.6,'1111122,1111122,1111122' 
ADCP,ioos:station:wmo:42390:1,2017-08-05T07:39:00Z,26.1290,-94.8980,62.6,333.0,8.8,-14.6,'1111122,1111122,1111122' 
ADCP,ioos:station:wmo:42390:1,2017-08-05T08:39:00Z,26.1290,-94.8980,62.6,307.0,4.0,-8.6,'1111122,1111122,1111122' 
ADCP,ioos:station:wmo:42390:1,2017-08-05T09:39:00Z,26.1290,-94.8980,62.6,357.0,6.1,-10.8,'1111122,1111122,1111122' 
ADCP,ioos:station:wmo:42390:1,2017-08-05T10:39:00Z,26.1290,-94.8980,62.6,328.0,14.1,-13.9,'1111122,1111122,1111122' 
ADCP,ioos:station:wmo:42390:1,2017-08-05T11:39:00Z,26.1290,-94.8980,62.6,294.0,7.7,-14.4,'1111122,1111122,1111122' 
ADCP,ioos:station:wmo:42390:1,2017-08-05T12:19:00Z,26.1290,-94.8980,62.6,199.0,9.0,-3.6,'1111122,1111122,1111122' 
ADCP,ioos:station:wmo:42390:1,2017-08-05T13:39:00Z,26.1290,-94.8980,62.6,220.0,9.9,-2.4,'1111122,1111122,1111122' 
ADCP,ioos:station:wmo:42390:1,2017-08-05T14:39:00Z,26.1290,-94.8980,62.6,204.0,7.2,-3.3,'1111122,1111122,1111122' 
ADCP,ioos:station:wmo:42390:1,2017-08-05T15:39:00Z,26.1290,-94.8980,62.6,185.0,19.7,5.9,'1111122,1111122,1111122' 
ADCP,ioos:station:wmo:42390:1,2017-08-05T16:39:00Z,26.1290,-94.8980,62.6,168.0,17.9,5.6,'1111122,1111122,1111122' 
ADCP,ioos:station:wmo:42390:1,2017-08-05T17:39:00Z,26.1290,-94.8980,62.6,175.0,24.9,9.8,'1111122,1111122,1111122' 
ADCP,ioos:station:wmo:42390:1,2017-08-05T18:39:00Z,26.1290,-94.8980,62.6,175.0,24.9,9.2,'1111122,1111122,1111122' 
ADCP,ioos:station:wmo:42390:1,2017-08-05T19:39:00Z,26.1290,-94.8980,62.6,181.0,22.0,5.4,'1111122,1111122,1111122' 
ADCP,ioos:station:wmo:42390:1,2017-08-05T20:39:00Z,26.1290,-94.8980,62.6,227.0,12.1,-4.3,'1111122,1111122,1111122' 
ADCP,ioos:station:wmo:42390:1,2017-08-05T21:39:00Z,26.1290,-94.8980,62.6,188.0,22.4,5.8,'1111122,1111122,1111122' 
ADCP,ioos:station:wmo:42390:1,2017-08-06T03:39:00Z,26.1290,-94.8980,62.6,331.0,12.3,-13.1,'1111122,1111122,1111122' 
ADCP,ioos:station:wmo:42390:1,2017-08-06T04:39:00Z,26.1290,-94.8980,62.6,344.0,11.4,-11.0,'1111122,1111122,1111122' 
ADCP,ioos:station:wmo:42390:1,2017-08-06T05:39:00Z,26.1290,-94.8980,62.6,333.0,7.6,-9.6,'1111122,1111122,1111122' 
ADCP,ioos:station:wmo:42390:1,2017-08-06T07:29:00Z,26.1290,-94.8980,62.6,332.0,14.8,-13.0,'1111122,1111122,1111122' 
ADCP,ioos:station:wmo:42390:1,2017-08-06T08:39:00Z,26.1290,-94.8980,62.6,331.0,12.5,-10.4,'1111122,1111122,1111122' 
ADCP,ioos:station:wmo:42390:1,2017-08-06T09:39:00Z,26.1290,-94.8980,62.6,321.0,9.7,-10.4,'1111122,1111122,1111122' 
ADCP,ioos:station:wmo:42390:1,2017-08-06T10:39:00Z,26.1290,-94.8980,62.6,288.0,12.1,-9.6,'1111122,1111122,1111122' 
ADCP,ioos:station:wmo:42390:1,2017-08-06T11:39:00Z,26.1290,-94.8980,62.6,194.0,10.9,-4.8,'1111122,1111122,1111122' 
ADCP,ioos:station:wmo:42390:1,2017-08-06T12:39:00Z,26.1290,-94.8980,62.6,172.0,16.9,3.7,'1111122,1111122,1111122' 
ADCP,ioos:station:wmo:42390:1,2017-08-06T13:39:00Z,26.1290,-94.8980,62.6,181.0,17.6,4.6,'1111122,1111122,1111122' 
ADCP,ioos:station:wmo:42390:1,2017-08-06T14:39:00Z,26.1290,-94.8980,62.6,183.0,9.5,-1.7,'1111122,1111122,1111122' 
ADCP,ioos:station:wmo:42390:1,2017-08-06T15:39:00Z,26.1290,-94.8980,62.6,169.0,14.2,0.5,'1111122,1111122,1111122' 
ADCP,ioos:station:wmo:42390:1,2017-08-06T16:39:00Z,26.1290,-94.8980,62.6,146.0,18.2,-1.1,'1111122,1111122,1111122' 
ADCP,ioos:station:wmo:42390:1,2017-08-06T18:39:00Z,26.1290,-94.8980,62.6,169.0,26.8,9.3,'1111122,1111122,1111122' 
ADCP,ioos:station:wmo:42390:1,2017-08-06T19:29:00Z,26.1290,-94.8980,62.6,173.0,34.7,17.6,'1111122,1111122,1111122' 
ADCP,ioos:station:wmo:42390:1,2017-08-06T20:39:00Z,26.1290,-94.8980,62.6,172.0,35.6,18.7,'1111122,1111122,1111122' 
ADCP,ioos:station:wmo:42390:1,2017-08-06T21:39:00Z,26.1290,-94.8980,62.6,172.0,32.5,11.5,'1111122,1111122,1111122' 
ADCP,ioos:station:wmo:42390:1,2017-08-06T23:19:00Z,26.1290,-94.8980,62.6,176.0,30.5,8.2,'1111122,1111122,1111122' 
ADCP,ioos:station:wmo:42390:1,2017-08-07T00:39:00Z,26.1290,-94.8980,62.6,218.0,13.8,-7.8,'1111122,1111122,1111122' 
ADCP,ioos:station:wmo:42390:1,2017-08-07T01:39:00Z,26.1290,-94.8980,62.6,254.0,12.6,-10.6,'1111122,1111122,1111122' 
ADCP,ioos:station:wmo:42390:1,2017-08-07T02:39:00Z,26.1290,-94.8980,62.6,297.0,11.1,-19.1,'1111122,1111122,1111122' 
ADCP,ioos:station:wmo:42390:1,2017-08-07T03:39:00Z,26.1290,-94.8980,62.6,295.0,13.5,-16.3,'1111122,1111122,1111122' 
ADCP,ioos:station:wmo:42390:1,2017-08-07T04:39:00Z,26.1290,-94.8980,62.6,292.0,10.5,-15.9,'1111122,1111122,1111122' 
ADCP,ioos:station:wmo:42390:1,2017-08-07T05:39:00Z,26.1290,-94.8980,62.6,281.0,14.1,-17.3,'1111122,1111122,1111122' 
ADCP,ioos:station:wmo:42390:1,2017-08-07T06:39:00Z,26.1290,-94.8980,62.6,297.0,10.6,-17.5,'1111122,1111122,1111122' 
ADCP,ioos:station:wmo:42390:1,2017-08-07T07:39:00Z,26.1290,-94.8980,62.6,292.0,15.8,-20.0,'1111122,1111122,1111122' 
ADCP,ioos:station:wmo:42390:1,2017-08-07T08:39:00Z,26.1290,-94.8980,62.6,310.0,14.2,-19.5,'1111122,1111122,1111122' 
ADCP,ioos:station:wmo:42390:1,2017-08-07T09:39:00Z,26.1290,-94.8980,62.6,319.0,9.4,-12.1,'1111122,1111122,1111122' 
ADCP,ioos:station:wmo:42390:1,2017-08-07T10:39:00Z,26.1290,-94.8980,62.6,299.0,8.6,-9.5,'1111122,1111122,1111122' 
ADCP,ioos:station:wmo:42390:1,2017-08-07T11:39:00Z,26.1290,-94.8980,62.6,286.0,10.2,-14.1,'1111122,1111122,1111122' 
ADCP,ioos:station:wmo:42390:1,2017-08-07T12:39:00Z,26.1290,-94.8980,62.6,277.0,8.9,-6.3,'1111122,1111122,1111122' 
ADCP,ioos:station:wmo:42390:1,2017-08-07T13:39:00Z,26.1290,-94.8980,62.6,234.0,9.1,-4.6,'1111122,1111122,1111122' 
ADCP,ioos:station:wmo:42390:1,2017-08-07T14:39:00Z,26.1290,-94.8980,62.6,221.0,5.5,-4.8,'1111122,1111122,1111122' 
ADCP,ioos:station:wmo:42390:1,2017-08-07T15:39:00Z,26.1290,-94.8980,62.6,193.0,5.1,-3.7,'1111122,1111122,1111122' 
ADCP,ioos:station:wmo:42390:1,2017-08-07T16:39:00Z,26.1290,-94.8980,62.6,315.0,2.7,-11.7,'1111122,1111122,1111122' 
ADCP,ioos:station:wmo:42390:1,2017-08-07T18:39:00Z,26.1290,-94.8980,62.6,178.0,18.1,4.9,'1111122,1111122,1111122' 
ADCP,ioos:station:wmo:42390:1,2017-08-07T19:39:00Z,26.1290,-94.8980,62.6,174.0,26.9,12.7,'1111122,1111122,1111122' 
ADCP,ioos:station:wmo:42390:1,2017-08-07T20:39:00Z,26.1290,-94.8980,62.6,175.0,28.4,11.5,'1111122,1111122,1111122' 
ADCP,ioos:station:wmo:42390:1,2017-08-07T21:39:00Z,26.1290,-94.8980,62.6,172.0,32.0,15.2,'1111122,1111122,1111122' 
ADCP,ioos:station:wmo:42390:1,2017-08-07T22:39:00Z,26.1290,-94.8980,62.6,169.0,33.5,14.6,'1111122,1111122,1111122' 
ADCP,ioos:station:wmo:42390:1,2017-08-07T23:39:00Z,26.1290,-94.8980,62.6,184.0,34.9,16.4,'1111122,1111122,1111122' 
ADCP,ioos:station:wmo:42390:1,2017-08-08T00:39:00Z,26.1290,-94.8980,62.6,177.0,39.8,18.9,'1111122,1111122,1111122' 
ADCP,ioos:station:wmo:42390:1,2017-08-08T01:39:00Z,26.1290,-94.8980,62.6,184.0,34.6,14.6,'1111122,1111122,1111122' 
ADCP,ioos:station:wmo:42390:1,2017-08-08T01:59:00Z,26.1290,-94.8980,62.6,186.0,30.6,16.1,'1111122,1111122,1111122' 
ADCP,ioos:station:wmo:42390:1,2017-08-08T03:39:00Z,26.1290,-94.8980,62.6,218.0,12.4,-1.0,'1111122,1111122,1111122' 
ADCP,ioos:station:wmo:42390:1,2017-08-08T04:39:00Z,26.1290,-94.8980,62.6,226.0,13.2,-2.3,'1111122,1111122,1111122' 
ADCP,ioos:station:wmo:42390:1,2017-08-08T05:39:00Z,26.1290,-94.8980,62.6,350.0,19.6,-22.3,'1111122,1111122,1111122' 
ADCP,ioos:station:wmo:42390:1,2017-08-08T06:39:00Z,26.1290,-94.8980,62.6,14.0,11.7,-15.7,'1111122,1111122,1111122' 
ADCP,ioos:station:wmo:42390:1,2017-08-08T07:59:00Z,26.1290,-94.8980,62.6,359.0,14.7,-19.4,'1111122,1111122,1111122' 
ADCP,ioos:station:wmo:42390:1,2017-08-08T09:39:00Z,26.1290,-94.8980,62.6,360.0,19.5,-21.0,'1111122,1111122,1111122' 
ADCP,ioos:station:wmo:42390:1,2017-08-08T10:39:00Z,26.1290,-94.8980,62.6,355.0,24.9,-26.8,'1111122,1111122,1111122' 
ADCP,ioos:station:wmo:42390:1,2017-08-08T11:39:00Z,26.1290,-94.8980,62.6,8.0,13.0,-16.9,'1111122,1111122,1111122' 
ADCP,ioos:station:wmo:42390:1,2017-08-08T12:39:00Z,26.1290,-94.8980,62.6,21.0,12.2,-16.0,'1111122,1111122,1111122' 
ADCP,ioos:station:wmo:42390:1,2017-08-08T13:39:00Z,26.1290,-94.8980,62.6,338.0,4.5,-7.9,'1111122,1111122,1111122' 
ADCP,ioos:station:wmo:42390:1,2017-08-08T16:39:00Z,26.1290,-94.8980,62.6,316.0,7.1,-13.2,'1111122,1111122,1111122' 
ADCP,ioos:station:wmo:42390:1,2017-08-08T18:19:00Z,26.1290,-94.8980,62.6,277.0,9.0,-14.2,'1111122,1111122,1111122' 
ADCP,ioos:station:wmo:42390:1,2017-08-08T19:39:00Z,26.1290,-94.8980,62.6,187.0,14.1,-1.9,'1111122,1111122,1111122' 
ADCP,ioos:station:wmo:42390:1,2017-08-08T22:39:00Z,26.1290,-94.8980,62.6,192.0,14.9,-5.1,'1111122,1111122,1111122' 
ADCP,ioos:station:wmo:42390:1,2017-08-08T23:39:00Z,26.1290,-94.8980,62.6,230.0,6.8,-11.4,'1111122,1111122,1111122' 
ADCP,ioos:station:wmo:42390:1,2017-08-09T00:39:00Z,26.1290,-94.8980,62.6,179.0,5.7,-10.7,'1111122,1111122,1111122' 
ADCP,ioos:station:wmo:42390:1,2017-08-09T01:39:00Z,26.1290,-94.8980,62.6,144.0,2.6,-9.4,'1111122,1111122,1111122' 
ADCP,ioos:station:wmo:42390:1,2017-08-09T02:39:00Z,26.1290,-94.8980,62.6,344.0,16.8,-21.3,'1111122,1111122,1111122' 
ADCP,ioos:station:wmo:42390:1,2017-08-09T03:39:00Z,26.1290,-94.8980,62.6,339.0,18.9,-23.1,'1111122,1111122,1111122' 
ADCP,ioos:station:wmo:42390:1,2017-08-09T04:39:00Z,26.1290,-94.8980,62.6,350.0,23.8,-27.1,'1111122,1111122,1111122' 
ADCP,ioos:station:wmo:42390:1,2017-08-09T06:39:00Z,26.1290,-94.8980,62.6,347.0,22.9,-22.4,'1111122,1111122,1111122' 
ADCP,ioos:station:wmo:42390:1,2017-08-09T07:39:00Z,26.1290,-94.8980,62.6,353.0,21.6,-27.4,'1111122,1111122,1111122' 
ADCP,ioos:station:wmo:42390:1,2017-08-09T08:39:00Z,26.1290,-94.8980,62.6,10.0,12.9,-16.3,'1111122,1111122,1111122' 
ADCP,ioos:station:wmo:42390:1,2017-08-09T09:39:00Z,26.1290,-94.8980,62.6,351.0,14.9,-20.7,'1111122,1111122,1111122' 
ADCP,ioos:station:wmo:42390:1,2017-08-09T10:39:00Z,26.1290,-94.8980,62.6,353.0,17.3,-21.9,'1111122,1111122,1111122' 
ADCP,ioos:station:wmo:42390:1,2017-08-09T11:39:00Z,26.1290,-94.8980,62.6,7.0,14.2,-24.5,'1111122,1111122,1111122' 
ADCP,ioos:station:wmo:42390:1,2017-08-09T12:39:00Z,26.1290,-94.8980,62.6,3.0,15.9,-26.5,'1111122,1111122,1111122' 
ADCP,ioos:station:wmo:42390:1,2017-08-09T13:39:00Z,26.1290,-94.8980,62.6,359.0,21.5,-29.1,'1111122,1111122,1111122' 
ADCP,ioos:station:wmo:42390:1,2017-08-09T13:59:00Z,26.1290,-94.8980,62.6,343.0,17.4,-25.7,'1111122,1111122,1111122' 
ADCP,ioos:station:wmo:42390:1,2017-08-19T07:19:00Z,26.1290,-94.8980,62.6,92.0,6.8,-4.9,'1111122,1111122,1111122' 
ADCP,ioos:station:wmo:42390:1,2017-08-23T05:49:00Z,26.1290,-94.8980,62.6,330.0,12.7,-17.0,'1111122,1111122,1111122' 
ADCP,ioos:station:wmo:42390:1,2017-08-25T08:19:00Z,26.1290,-94.8980,62.6,323.0,53.5,-43.6,'1111122,1111122,1111122' 
 
DISCLAIMER: The Gulf of Mexico Coastal and Ocean Observing (GCOOS) Data Portal aggregates data from the regional data providers for the convenience of all data users. Data published on this website should not be used for navigation or certain other uses as we cannot guarantee data accuracy or availability. The data and delivery services are provided 'as is' without warranty of any kind. Data Source: Gulf of Mexico Coastal Ocean Observing System Data Portal (http://data.gcoos.org/) 
